HAKGR LFMN-LSZB

Flight info

Callsign HAKGR
Flight time 1h 13m
Altitude 23000
Route IRMAR DCT VANAS N853 MOLUS N871 TELNO
Aircraft B350/L-SBGR/C

Departure

Time 2026-04-22 15:54
Airport Nice-Côte d'Azur Airport (LFMN)

Arrival

Time 2026-04-22 17:08
Airport Bern Airport (LSZB)
Time Latitude Longitude Altitude Speed Heading
2026-04-22 15:39 43.66391 7.21635 17 ft 0 kts 135°
2026-04-22 15:47 43.66386 7.21641 17 ft 5 kts 135°
2026-04-22 15:47 43.66326 7.21661 17 ft 13 kts 217°
2026-04-22 15:48 43.66235 7.21535 17 ft 23 kts 225°
2026-04-22 15:48 43.66131 7.21393 17 ft 21 kts 224°
2026-04-22 15:48 43.66013 7.21229 17 ft 24 kts 225°
2026-04-22 15:48 43.65929 7.21113 17 ft 14 kts 224°
2026-04-22 15:49 43.65841 7.20993 17 ft 19 kts 225°
2026-04-22 15:49 43.65816 7.20958 17 ft 1 kts 225°
2026-04-22 15:49 43.65792 7.20926 17 ft 11 kts 224°
2026-04-22 15:49 43.65705 7.20805 17 ft 24 kts 226°
2026-04-22 15:50 43.65600 7.20684 17 ft 13 kts 191°
2026-04-22 15:50 43.65527 7.20698 17 ft 12 kts 169°
2026-04-22 15:50 43.65412 7.20722 18 ft 21 kts 174°
2026-04-22 15:50 43.65260 7.20721 17 ft 23 kts 211°
2026-04-22 15:51 43.65148 7.20578 17 ft 14 kts 219°
2026-04-22 15:51 43.65079 7.20575 17 ft 10 kts 144°
2026-04-22 15:51 43.65065 7.20592 17 ft 0 kts 133°
2026-04-22 15:52 43.65059 7.20601 17 ft 4 kts 134°
2026-04-22 15:52 43.65014 7.20675 18 ft 15 kts 105°
2026-04-22 15:52 43.65037 7.20746 18 ft 0 kts 45°
2026-04-22 15:53 43.65084 7.20809 18 ft 34 kts 45°
2026-04-22 15:53 43.65412 7.21265 22 ft 97 kts 44°
2026-04-22 15:54 43.65954 7.22054 256 ft 120 kts 44°
2026-04-22 15:54 43.66595 7.22888 632 ft 136 kts 44°
2026-04-22 15:54 43.67043 7.24137 939 ft 155 kts 81°
2026-04-22 15:54 43.66906 7.25621 1325 ft 161 kts 109°
2026-04-22 15:55 43.66343 7.26975 1733 ft 163 kts 127°
2026-04-22 15:55 43.65540 7.28041 2298 ft 158 kts 142°
2026-04-22 15:55 43.64603 7.28845 2792 ft 160 kts 150°
2026-04-22 15:55 43.63591 7.29521 3242 ft 163 kts 154°
2026-04-22 15:56 43.62565 7.30182 3684 ft 162 kts 144°
2026-04-22 15:56 43.61722 7.31157 4119 ft 160 kts 138°
2026-04-22 15:56 43.60667 7.31757 4453 ft 172 kts 171°
2026-04-22 15:56 43.59463 7.31504 4806 ft 184 kts 201°
2026-04-22 15:57 43.58351 7.30448 5021 ft 198 kts 217°
2026-04-22 15:57 43.57279 7.29287 5321 ft 199 kts 213°
2026-04-22 15:57 43.56125 7.28226 5649 ft 199 kts 209°
2026-04-22 15:57 43.55039 7.27034 5881 ft 206 kts 232°
2026-04-22 15:58 43.54580 7.25178 6104 ft 208 kts 274°
2026-04-22 15:58 43.55092 7.23348 6249 ft 206 kts 306°
2026-04-22 15:58 43.55838 7.21666 6493 ft 206 kts 305°
2026-04-22 15:58 43.56673 7.20048 6646 ft 209 kts 309°
2026-04-22 15:59 43.57556 7.18399 6797 ft 217 kts 311°
2026-04-22 15:59 43.58525 7.16777 6929 ft 222 kts 314°
2026-04-22 15:59 43.59552 7.15142 7010 ft 225 kts 314°
2026-04-22 15:59 43.60557 7.13533 7334 ft 217 kts 314°
2026-04-22 16:00 43.61211 7.12514 7544 ft 211 kts 319°
2026-04-22 16:00 43.62984 7.11642 8012 ft 203 kts 353°
2026-04-22 16:00 43.64370 7.11281 8370 ft 203 kts 345°
2026-04-22 16:00 43.65724 7.10719 8731 ft 203 kts 341°
2026-04-22 16:01 43.67050 7.10111 9094 ft 204 kts 341°
2026-04-22 16:01 43.68400 7.09504 9470 ft 204 kts 341°
2026-04-22 16:01 43.69755 7.08907 9843 ft 205 kts 341°
2026-04-22 16:01 43.71118 7.08307 10199 ft 206 kts 341°
2026-04-22 16:02 43.72484 7.07700 10531 ft 206 kts 341°
2026-04-22 16:02 43.73836 7.07106 10869 ft 202 kts 341°
2026-04-22 16:02 43.75173 7.06513 11210 ft 202 kts 340°
2026-04-22 16:02 43.76512 7.05918 11557 ft 201 kts 340°
2026-04-22 16:03 43.77841 7.05329 11908 ft 200 kts 340°
2026-04-22 16:03 43.79169 7.04740 12256 ft 200 kts 340°
2026-04-22 16:03 43.80492 7.04154 12616 ft 198 kts 340°
2026-04-22 16:03 43.81809 7.03568 12988 ft 199 kts 340°
2026-04-22 16:04 43.82681 7.03191 13210 ft 198 kts 340°
2026-04-22 16:04 43.83996 7.02598 13588 ft 199 kts 340°
2026-04-22 16:04 43.85313 7.02010 13962 ft 199 kts 340°
2026-04-22 16:04 43.87042 7.01245 14400 ft 194 kts 340°
2026-04-22 16:05 43.87903 7.00861 14617 ft 191 kts 339°
2026-04-22 16:05 43.89161 7.00300 14942 ft 188 kts 339°
2026-04-22 16:05 43.90394 6.99751 15274 ft 185 kts 339°
2026-04-22 16:05 43.91617 6.99206 15609 ft 184 kts 339°
2026-04-22 16:06 43.92828 6.98666 15947 ft 182 kts 339°
2026-04-22 16:06 43.94035 6.98128 16305 ft 183 kts 338°
2026-04-22 16:06 43.95247 6.97588 16649 ft 183 kts 338°
2026-04-22 16:06 43.96445 6.97055 17007 ft 179 kts 338°
2026-04-22 16:07 43.97619 6.96529 17360 ft 176 kts 337°
2026-04-22 16:07 43.98775 6.96011 17725 ft 177 kts 338°
2026-04-22 16:07 43.99971 6.95476 18105 ft 183 kts 337°
2026-04-22 16:07 44.01202 6.94926 18477 ft 188 kts 337°
2026-04-22 16:08 44.02451 6.94368 18833 ft 188 kts 336°
2026-04-22 16:08 44.03708 6.93806 19173 ft 190 kts 336°
2026-04-22 16:08 44.04977 6.93238 19503 ft 193 kts 337°
2026-04-22 16:08 44.06258 6.92666 19850 ft 194 kts 336°
2026-04-22 16:09 44.07532 6.92095 20189 ft 196 kts 336°
2026-04-22 16:09 44.08832 6.91513 20528 ft 196 kts 337°
2026-04-22 16:09 44.10135 6.90929 20883 ft 197 kts 336°
2026-04-22 16:09 44.11438 6.90344 21233 ft 196 kts 337°
2026-04-22 16:10 44.12728 6.89766 21581 ft 193 kts 337°
2026-04-22 16:10 44.14003 6.89193 21943 ft 191 kts 337°
2026-04-22 16:10 44.15320 6.88878 22309 ft 194 kts 347°
2026-04-22 16:10 44.16675 6.88685 22673 ft 196 kts 347°
2026-04-22 16:11 44.18028 6.88481 23053 ft 196 kts 347°
2026-04-22 16:11 44.19411 6.88268 23153 ft 207 kts 347°
2026-04-22 16:11 44.20884 6.88042 23169 ft 217 kts 347°
2026-04-22 16:11 44.22420 6.87812 23159 ft 226 kts 348°
2026-04-22 16:12 44.24010 6.87575 23167 ft 232 kts 348°
2026-04-22 16:12 44.25589 6.87341 23162 ft 229 kts 348°
2026-04-22 16:12 44.27167 6.87105 23154 ft 227 kts 347°
2026-04-22 16:12 44.28732 6.86868 23151 ft 225 kts 347°
2026-04-22 16:13 44.30285 6.86632 23151 ft 223 kts 347°
2026-04-22 16:13 44.31831 6.86397 23156 ft 223 kts 347°
2026-04-22 16:13 44.33373 6.86163 23146 ft 222 kts 348°
2026-04-22 16:13 44.34898 6.85933 23163 ft 220 kts 347°
2026-04-22 16:14 44.36426 6.85700 23157 ft 221 kts 348°
2026-04-22 16:14 44.37961 6.85466 23158 ft 222 kts 347°
2026-04-22 16:14 44.39494 6.85239 23152 ft 221 kts 348°
2026-04-22 16:14 44.40994 6.85009 23149 ft 219 kts 347°
2026-04-22 16:15 44.42519 6.84776 23173 ft 219 kts 347°
2026-04-22 16:15 44.44033 6.84541 23170 ft 219 kts 347°
2026-04-22 16:15 44.45549 6.84315 23164 ft 218 kts 347°
2026-04-22 16:15 44.47055 6.84086 23129 ft 218 kts 347°
2026-04-22 16:16 44.48563 6.83858 23132 ft 219 kts 347°
2026-04-22 16:16 44.50077 6.83624 23145 ft 219 kts 347°
2026-04-22 16:16 44.51594 6.83393 23142 ft 220 kts 347°
2026-04-22 16:16 44.53116 6.83162 23139 ft 220 kts 347°
2026-04-22 16:17 44.54634 6.82930 23147 ft 220 kts 347°
2026-04-22 16:17 44.56159 6.82697 23136 ft 221 kts 347°
2026-04-22 16:17 44.57690 6.82464 23154 ft 222 kts 347°
2026-04-22 16:17 44.59203 6.82232 23139 ft 220 kts 347°
2026-04-22 16:18 44.60710 6.82004 23142 ft 217 kts 347°
2026-04-22 16:18 44.62214 6.81772 23145 ft 218 kts 347°
2026-04-22 16:18 44.63720 6.81540 23141 ft 218 kts 347°
2026-04-22 16:18 44.65228 6.81310 23146 ft 218 kts 347°
2026-04-22 16:19 44.66742 6.81079 23149 ft 219 kts 347°
2026-04-22 16:19 44.68255 6.80846 23146 ft 219 kts 347°
2026-04-22 16:19 44.69764 6.80614 23147 ft 219 kts 347°
2026-04-22 16:19 44.71285 6.80381 23151 ft 220 kts 347°
2026-04-22 16:20 44.72803 6.80149 23153 ft 219 kts 347°
2026-04-22 16:20 44.74316 6.79916 23149 ft 219 kts 347°
2026-04-22 16:20 44.75836 6.79682 23151 ft 220 kts 347°
2026-04-22 16:20 44.77341 6.79452 23147 ft 216 kts 347°
2026-04-22 16:21 44.78842 6.79222 23147 ft 217 kts 347°
2026-04-22 16:21 44.80346 6.79023 23157 ft 216 kts 351°
2026-04-22 16:21 44.81821 6.78956 23156 ft 214 kts 349°
2026-04-22 16:21 44.83300 6.78833 23157 ft 213 kts 349°
2026-04-22 16:22 44.86291 6.78626 23155 ft 217 kts 349°
2026-04-22 16:22 44.87801 6.78529 23159 ft 218 kts 349°
2026-04-22 16:22 44.89317 6.78430 23157 ft 218 kts 349°
2026-04-22 16:23 44.92336 6.78231 23153 ft 216 kts 349°
2026-04-22 16:23 44.93840 6.78132 23159 ft 217 kts 349°
2026-04-22 16:23 44.95351 6.78032 23153 ft 217 kts 349°
2026-04-22 16:24 44.96854 6.77938 23146 ft 215 kts 349°
2026-04-22 16:24 44.99816 6.77744 23160 ft 211 kts 349°
2026-04-22 16:24 45.01286 6.77642 23159 ft 212 kts 349°
2026-04-22 16:25 45.02753 6.77541 23161 ft 215 kts 349°
2026-04-22 16:25 45.05752 6.77346 23148 ft 215 kts 349°
2026-04-22 16:25 45.07238 6.77249 23151 ft 213 kts 349°
2026-04-22 16:26 45.08721 6.77150 23148 ft 213 kts 349°
2026-04-22 16:26 45.10206 6.77050 23154 ft 215 kts 349°
2026-04-22 16:26 45.11708 6.76950 23150 ft 218 kts 349°
2026-04-22 16:26 45.13229 6.76849 23128 ft 219 kts 349°
2026-04-22 16:27 45.14749 6.76750 23116 ft 217 kts 349°
2026-04-22 16:27 45.16238 6.76668 23125 ft 211 kts 350°
2026-04-22 16:27 45.17704 6.76562 23120 ft 211 kts 348°
2026-04-22 16:27 45.19179 6.76448 23126 ft 214 kts 348°
2026-04-22 16:28 45.20677 6.76351 23123 ft 216 kts 348°
2026-04-22 16:28 45.22185 6.76255 23119 ft 218 kts 348°
2026-04-22 16:28 45.23688 6.76157 23118 ft 215 kts 349°
2026-04-22 16:28 45.25186 6.76057 23120 ft 216 kts 348°
2026-04-22 16:29 45.26688 6.75956 23104 ft 215 kts 348°
2026-04-22 16:29 45.28156 6.75859 23101 ft 212 kts 348°
2026-04-22 16:29 45.29621 6.75758 23117 ft 210 kts 348°
2026-04-22 16:29 45.31093 6.75660 23106 ft 212 kts 348°
2026-04-22 16:30 45.32092 6.75595 23106 ft 212 kts 348°
2026-04-22 16:30 45.34049 6.75465 23103 ft 212 kts 348°
2026-04-22 16:30 45.35528 6.75366 23106 ft 213 kts 348°
2026-04-22 16:30 45.37013 6.75266 23114 ft 215 kts 348°
2026-04-22 16:31 45.38510 6.75165 23111 ft 216 kts 348°
2026-04-22 16:31 45.40013 6.75066 23116 ft 216 kts 349°
2026-04-22 16:31 45.41515 6.74964 23108 ft 216 kts 348°
2026-04-22 16:31 45.43018 6.74864 23109 ft 217 kts 348°
2026-04-22 16:32 45.44526 6.74764 23101 ft 216 kts 348°
2026-04-22 16:32 45.46032 6.74663 23098 ft 216 kts 348°
2026-04-22 16:32 45.47509 6.74568 23096 ft 215 kts 348°
2026-04-22 16:32 45.49006 6.74459 23093 ft 215 kts 348°
2026-04-22 16:33 45.50502 6.74356 23102 ft 215 kts 348°
2026-04-22 16:33 45.52004 6.74254 23104 ft 216 kts 348°
2026-04-22 16:33 45.53508 6.74151 23099 ft 216 kts 349°
2026-04-22 16:33 45.55004 6.74051 23098 ft 214 kts 348°
2026-04-22 16:34 45.56489 6.73949 23097 ft 213 kts 348°
2026-04-22 16:34 45.57973 6.73846 23119 ft 213 kts 347°
2026-04-22 16:34 45.59458 6.73744 23107 ft 213 kts 347°
2026-04-22 16:34 45.60936 6.73644 23109 ft 212 kts 347°
2026-04-22 16:35 45.62409 6.73543 23106 ft 212 kts 348°
2026-04-22 16:35 45.63883 6.73441 23097 ft 211 kts 347°
2026-04-22 16:35 45.65326 6.73343 23086 ft 209 kts 347°
2026-04-22 16:35 45.66763 6.73245 23094 ft 204 kts 347°
2026-04-22 16:36 45.68184 6.73147 23098 ft 204 kts 347°
2026-04-22 16:36 45.69617 6.73045 23100 ft 207 kts 348°
2026-04-22 16:36 45.71062 6.72944 23101 ft 209 kts 347°
2026-04-22 16:36 45.72516 6.72847 23103 ft 209 kts 347°
2026-04-22 16:37 45.73972 6.72747 23105 ft 210 kts 347°
2026-04-22 16:37 45.75444 6.72643 23098 ft 212 kts 347°
2026-04-22 16:37 45.76921 6.72543 23103 ft 214 kts 348°
2026-04-22 16:37 45.78419 6.72439 23098 ft 216 kts 347°
2026-04-22 16:38 45.79916 6.72335 23101 ft 216 kts 347°
2026-04-22 16:38 45.81401 6.72235 23096 ft 215 kts 347°
2026-04-22 16:38 45.82888 6.72135 23105 ft 214 kts 347°
2026-04-22 16:38 45.84381 6.72033 23103 ft 216 kts 347°
2026-04-22 16:39 45.85889 6.71929 23094 ft 217 kts 347°
2026-04-22 16:39 45.87391 6.71829 23087 ft 215 kts 347°
2026-04-22 16:39 45.88879 6.71730 23092 ft 214 kts 347°
2026-04-22 16:39 45.90365 6.71628 23055 ft 214 kts 348°
2026-04-22 16:40 45.91846 6.71527 23091 ft 213 kts 347°
2026-04-22 16:40 45.93329 6.71426 23096 ft 214 kts 347°
2026-04-22 16:40 45.96337 6.71227 23089 ft 221 kts 348°
2026-04-22 16:41 45.97872 6.71110 23104 ft 220 kts 348°
2026-04-22 16:41 45.99401 6.71012 23103 ft 219 kts 348°
2026-04-22 16:41 46.00919 6.70911 23099 ft 218 kts 348°
2026-04-22 16:41 46.02430 6.70808 23101 ft 217 kts 348°
2026-04-22 16:42 46.03913 6.70709 23099 ft 216 kts 348°
2026-04-22 16:42 46.05409 6.70604 23086 ft 213 kts 348°
2026-04-22 16:42 46.06885 6.70504 23100 ft 212 kts 347°
2026-04-22 16:42 46.08361 6.70401 23097 ft 212 kts 347°
2026-04-22 16:43 46.09832 6.70301 23091 ft 211 kts 347°
2026-04-22 16:43 46.11300 6.70201 23090 ft 211 kts 347°
2026-04-22 16:43 46.12769 6.70100 23079 ft 210 kts 347°
2026-04-22 16:43 46.14222 6.70001 23096 ft 209 kts 348°
2026-04-22 16:44 46.15676 6.69903 23097 ft 208 kts 348°
2026-04-22 16:44 46.17119 6.69805 23096 ft 207 kts 347°
2026-04-22 16:44 46.18565 6.69705 23105 ft 208 kts 348°
2026-04-22 16:44 46.20011 6.69607 23110 ft 209 kts 348°
2026-04-22 16:45 46.21467 6.69509 23098 ft 209 kts 348°
2026-04-22 16:45 46.22923 6.69402 23103 ft 210 kts 348°
2026-04-22 16:45 46.24383 6.69282 23104 ft 211 kts 348°
2026-04-22 16:45 46.25857 6.69186 23102 ft 213 kts 349°
2026-04-22 16:46 46.27322 6.69109 23108 ft 213 kts 348°
2026-04-22 16:46 46.28819 6.69011 23106 ft 212 kts 348°
2026-04-22 16:46 46.30291 6.68909 23109 ft 211 kts 348°
2026-04-22 16:46 46.31747 6.68807 23100 ft 212 kts 349°
2026-04-22 16:47 46.33228 6.68706 23104 ft 212 kts 348°
2026-04-22 16:47 46.34696 6.68608 23101 ft 211 kts 348°
2026-04-22 16:47 46.35664 6.68541 23103 ft 210 kts 348°
2026-04-22 16:47 46.37619 6.68404 22846 ft 214 kts 349°
2026-04-22 16:48 46.39146 6.68295 22447 ft 225 kts 351°
2026-04-22 16:48 46.40737 6.68187 22056 ft 232 kts 351°
2026-04-22 16:48 46.42365 6.68079 21670 ft 236 kts 352°
2026-04-22 16:48 46.44012 6.68401 21287 ft 248 kts 14°
2026-04-22 16:49 46.45470 6.69854 20922 ft 265 kts 41°
2026-04-22 16:49 46.46648 6.71938 20559 ft 268 kts 44°
2026-04-22 16:49 46.47808 6.74061 20196 ft 270 kts 45°
2026-04-22 16:49 46.48975 6.76166 19835 ft 270 kts 45°
2026-04-22 16:50 46.50160 6.78286 19482 ft 270 kts 45°
2026-04-22 16:50 46.50945 6.79690 19236 ft 270 kts 46°
2026-04-22 16:50 46.52126 6.81812 18884 ft 270 kts 46°
2026-04-22 16:50 46.53304 6.83934 18538 ft 269 kts 46°
2026-04-22 16:51 46.54476 6.86044 18151 ft 268 kts 47°
2026-04-22 16:51 46.55640 6.88141 17753 ft 266 kts 48°
2026-04-22 16:51 46.56800 6.90228 17356 ft 264 kts 48°
2026-04-22 16:51 46.57959 6.92305 16960 ft 264 kts 49°
2026-04-22 16:52 46.59114 6.94377 16572 ft 263 kts 49°
2026-04-22 16:52 46.60262 6.96442 16193 ft 262 kts 48°
2026-04-22 16:52 46.61403 6.98498 15809 ft 261 kts 50°
2026-04-22 16:52 46.62550 7.00562 15431 ft 261 kts 49°
2026-04-22 16:53 46.63690 7.02616 15058 ft 261 kts 49°
2026-04-22 16:53 46.64829 7.04670 14688 ft 262 kts 50°
2026-04-22 16:53 46.65968 7.06724 14332 ft 264 kts 50°
2026-04-22 16:53 46.67128 7.08820 13977 ft 266 kts 51°
2026-04-22 16:54 46.68279 7.10901 13581 ft 261 kts 51°
2026-04-22 16:54 46.69405 7.12939 13177 ft 256 kts 51°
2026-04-22 16:54 46.70511 7.14940 12780 ft 252 kts 51°
2026-04-22 16:54 46.71606 7.16925 12388 ft 250 kts 51°
2026-04-22 16:55 46.72692 7.18893 11996 ft 248 kts 51°
2026-04-22 16:55 46.73767 7.20842 11616 ft 246 kts 51°
2026-04-22 16:55 46.74839 7.22788 11240 ft 245 kts 51°
2026-04-22 16:55 46.75900 7.24717 10867 ft 243 kts 51°
2026-04-22 16:56 46.76955 7.26634 10503 ft 242 kts 51°
2026-04-22 16:56 46.77995 7.28527 10143 ft 241 kts 51°
2026-04-22 16:56 46.79041 7.30431 9757 ft 240 kts 51°
2026-04-22 16:56 46.80080 7.32325 9355 ft 238 kts 52°
2026-04-22 16:57 46.81112 7.34208 8974 ft 237 kts 52°
2026-04-22 16:57 46.82140 7.36084 8602 ft 236 kts 51°
2026-04-22 16:57 46.83158 7.37905 8401 ft 227 kts 47°
2026-04-22 16:57 46.84442 7.39165 8191 ft 223 kts 21°
2026-04-22 16:58 46.85964 7.39505 7997 ft 221 kts 355°
2026-04-22 16:58 46.87389 7.38907 7990 ft 207 kts 332°
2026-04-22 16:58 46.88543 7.37753 7975 ft 198 kts 324°
2026-04-22 16:58 46.89675 7.36572 7977 ft 201 kts 327°
2026-04-22 16:59 46.90831 7.35362 7979 ft 207 kts 326°
2026-04-22 16:59 46.92013 7.34121 7982 ft 211 kts 326°
2026-04-22 16:59 46.93208 7.32864 7993 ft 211 kts 326°
2026-04-22 16:59 46.94349 7.31493 7861 ft 215 kts 321°
2026-04-22 17:00 46.95494 7.30132 7609 ft 208 kts 325°
2026-04-22 17:00 46.97690 7.27517 6911 ft 201 kts 324°
2026-04-22 17:00 46.98800 7.26335 6528 ft 193 kts 340°
2026-04-22 17:01 47.00058 7.26005 6150 ft 181 kts 11°
2026-04-22 17:01 47.01221 7.26509 5777 ft 170 kts 35°
2026-04-22 17:01 47.02081 7.27630 5409 ft 163 kts 53°
2026-04-22 17:01 47.02805 7.28900 5026 ft 162 kts 51°
2026-04-22 17:02 47.03528 7.30154 4711 ft 157 kts 52°
2026-04-22 17:02 47.04204 7.31341 4492 ft 146 kts 55°
2026-04-22 17:02 47.04528 7.32665 4276 ft 137 kts 87°
2026-04-22 17:02 47.04224 7.33981 4068 ft 140 kts 121°
2026-04-22 17:03 47.03511 7.34904 3998 ft 130 kts 131°
2026-04-22 17:03 47.02800 7.35711 3924 ft 130 kts 135°
2026-04-22 17:03 47.02132 7.36532 3916 ft 123 kts 128°
2026-04-22 17:03 47.01492 7.37349 3934 ft 124 kts 131°
2026-04-22 17:04 47.00831 7.38158 3978 ft 122 kts 126°
2026-04-22 17:04 47.00203 7.39029 4004 ft 127 kts 126°
2026-04-22 17:04 46.99492 7.39874 3991 ft 137 kts 132°
2026-04-22 17:04 46.98728 7.40780 4014 ft 140 kts 129°
2026-04-22 17:05 46.98030 7.41651 3954 ft 121 kts 127°
2026-04-22 17:05 46.97411 7.42441 3725 ft 116 kts 129°
2026-04-22 17:05 46.96753 7.43122 3472 ft 114 kts 133°
2026-04-22 17:05 46.96164 7.43834 3244 ft 104 kts 123°
2026-04-22 17:06 46.95626 7.44542 3012 ft 107 kts 131°
2026-04-22 17:06 46.95054 7.45259 2837 ft 110 kts 134°
2026-04-22 17:06 46.94453 7.46047 2611 ft 120 kts 136°
2026-04-22 17:06 46.93794 7.46816 2380 ft 121 kts 137°
2026-04-22 17:07 46.93141 7.47600 2165 ft 121 kts 136°
2026-04-22 17:07 46.92495 7.48384 1942 ft 120 kts 134°
2026-04-22 17:07 46.91866 7.49161 1712 ft 116 kts 135°
2026-04-22 17:07 46.91314 7.49839 1682 ft 88 kts 141°
2026-04-22 17:08 46.91040 7.50170 1722 ft 26 kts 140°
2026-04-22 17:08 46.90938 7.50298 1722 ft 18 kts 139°
2026-04-22 17:08 46.90922 7.50390 1718 ft 9 kts 40°
2026-04-22 17:08 46.90978 7.50389 1720 ft 11 kts 320°
2026-04-22 17:09 46.91039 7.50321 1722 ft 14 kts 323°
2026-04-22 17:09 46.91134 7.50203 1719 ft 20 kts 321°
2026-04-22 17:09 46.91224 7.50090 1724 ft 19 kts 321°
2026-04-22 17:09 46.91301 7.49994 1688 ft 8 kts 318°
2026-04-22 17:10 46.91330 7.50000 1676 ft 2 kts 87°
2026-04-22 17:10 46.91317 7.50018 1676 ft 0 kts 144°